Flight Briefing for CMB812

Departure Arrival
Bucholz AAF Airport (PKWA)
Click to view FAA NOTAMS
Daniel K Inouye International Airport (PHNL)
Click to view FAA NOTAMS
Departure Time Arrival Time
N/A N/A
Aircraft Distance
B757-200SF 2127nm
Departure METAR Arrival METAR
PKWA 250240Z AUTO 14003KT 10SM CLR 31/25 A2983 RMK AO2 T03090252 PHNL 250153Z 10009G17KT 10SM FEW024 FEW036 SCT047 31/21 A3003 RMK AO2 SLP170 T03060206 $
Suggested Route
NDJ 1130N/17200E MANRE R584 MCFLY R584 CHOKO


View recent IFR Routes data
Notes
USTRANSCOM CONTRACT FLIGHT

Charts and Procedures

Charts for PKWA
No chart available
Charts for PHNL
No chart available

Windy.com Weather Map